DW1520 Weather Reports


time (UTC)temp
F
wind
direction
speed
knots
gust
knots
rain 1hr
in
rain 24hr
in
rain mn
in
humidity
%
barometer
mb
20260903074506 72 157 0.0 0.0 0.00 0.03 0.00 90 1007.2
20260903074006 72 157 0.0 0.0 0.00 0.03 0.00 89 1007.2
20260903073506 72 157 0.0 0.0 0.00 0.03 0.00 89 1007.2
20260903073006 72 157 0.0 0.0 0.00 0.03 0.00 89 1007.3
20260903072006 72 157 0.0 0.0 0.00 0.03 0.00 89 1007.4
20260903071505 72 157 0.0 0.9 0.00 0.03 0.00 89 1007.4
20260903071006 72 157 0.0 1.7 0.00 0.03 0.00 89 1007.4
20260903070506 72 157 0.0 1.7 0.00 0.03 0.00 89 1007.4
20260903070005 72 157 0.0 1.7 0.00 0.04 0.00 89 1007.5
20260903065006 73 157 0.0 1.7 0.00 0.05 0.00 89 1007.6
20260903064505 73 157 0.0 0.9 0.00 0.06 0.00 89 1007.6
20260903064006 73 157 0.0 0.9 0.00 0.09 0.00 88 1007.6
20260903063506 73 157 0.0 0.0 0.00 0.24 0.00 88 1007.6
20260903063006 73 157 0.0 0.0 0.00 0.34 0.00 88 1007.6
20260903062505 73 157 0.0 0.9 0.00 0.34 0.00 88 1007.7
20260903062005 73 157 0.0 1.7 0.00 0.34 0.00 88 1007.8
20260903061506 73 157 0.0 1.7 0.00 0.34 0.00 88 1007.8
20260903060006 73 157 0.0 0.9 0.00 0.34 0.00 89 1007.8
20260903055505 73 157 0.0 0.9 0.00 0.34 0.00 89 1007.9
20260903055006 73 157 0.0 0.9 0.00 0.34 0.00 89 1007.9
20260903054505 73 157 0.0 0.9 0.00 0.34 0.00 89 1007.8
20260903054006 73 157 0.0 0.0 0.00 0.34 0.00 89 1007.9
20260903053006 74 157 0.0 1.7 0.00 0.34 0.00 89 1007.9
20260903052506 74 157 0.0 1.7 0.00 0.34 0.00 89 1007.9
20260903052006 74 157 0.0 0.9 0.00 0.34 0.00 88 1008.0
20260903050006 74 157 0.0 1.7 0.00 0.34 0.00 88 1008.0
20260903044505 74 157 0.0 0.9 0.00 0.34 0.34 87 1008.0
20260903044006 74 157 0.9 1.7 0.00 0.35 0.34 87 1008.0
20260903043506 75 157 0.0 0.0 0.00 0.35 0.34 87 1008.0
20260903043006 75 157 0.0 1.7 0.00 0.35 0.34 87 1008.0
20260903042505 75 157 0.9 1.7 0.00 0.35 0.34 87 1008.0
20260903042005 75 157 0.9 1.7 0.00 0.35 0.34 87 1008.0
20260903041006 75 157 0.9 1.7 0.00 0.35 0.34 86 1008.1
20260903040506 75 157 0.0 0.9 0.00 0.35 0.34 86 1008.1
20260903040008 75 157 0.0 1.7 0.00 0.35 0.34 86 1008.1
20260903035505 75 157 0.0 0.9 0.00 0.35 0.34 86 1008.1
20260903035006 75 157 0.0 0.9 0.00 0.35 0.34 86 1008.2
20260903034505 75 157 0.0 0.9 0.00 0.35 0.34 86 1008.2
20260903034006 75 157 0.0 0.0 0.00 0.35 0.34 86 1008.2
20260903033506 75 157 0.0 0.0 0.00 0.35 0.34 85 1008.3
20260903033005 75 157 0.0 0.0 0.00 0.35 0.34 85 1008.3
20260903032006 75 157 0.0 0.0 0.00 0.35 0.34 85 1008.3
20260903031506 75 157 0.0 0.0 0.00 0.35 0.34 86 1008.4
20260903031005 75 157 0.0 0.0 0.00 0.35 0.34 85 1008.4
20260903030506 75 157 0.0 0.0 0.00 0.35 0.34 85 1008.4
20260903030005 75 157 0.0 0.0 0.00 0.35 0.34 85 1008.4
20260903025506 75 157 0.0 0.0 0.00 0.35 0.34 85 1008.4
20260903025006 75 157 0.0 0.0 0.00 0.35 0.34 85 1008.4
20260903024506 75 157 0.0 0.0 0.00 0.35 0.34 85 1008.4
20260903024006 75 157 0.0 0.0 0.00 0.35 0.34 84 1008.4
20260903023506 75 157 0.0 0.0 0.00 0.35 0.34 84 1008.4
20260903023006 75 157 0.0 0.0 0.00 0.35 0.34 84 1008.4
20260903022006 76 157 0.0 0.0 0.00 0.35 0.34 84 1008.2
20260903021505 76 157 0.0 0.0 0.00 0.35 0.34 84 1008.2
20260903021006 76 157 0.0 0.0 0.00 0.35 0.34 83 1008.2
20260903020506 76 157 0.0 0.0 0.00 0.35 0.34 83 1008.1
20260903020007 76 157 0.0 0.0 0.00 0.35 0.34 82 1008.1
20260903015507 76 157 0.0 0.0 0.00 0.35 0.34 82 1008.0
20260903015007 76 157 0.0 0.0 0.00 0.35 0.34 81 1008.0
20260903014506 77 157 0.0 0.0 0.00 0.35 0.34 81 1008.0
20260903014009 77 157 0.0 0.0 0.00 0.35 0.34 80 1007.9
20260903013006 77 157 0.0 0.0 0.00 0.35 0.34 79 1008.0
20260903012506 78 157 0.0 0.0 0.00 0.35 0.34 79 1007.9
20260903012007 78 157 0.0 0.0 0.00 0.35 0.34 78 1007.9
20260903011006 78 157 0.0 0.0 0.00 0.35 0.34 77 1007.8
20260903010506 79 157 0.0 0.0 0.00 0.35 0.34 76 1007.7
20260903010006 79 157 0.0 0.0 0.00 0.35 0.34 76 1007.7
20260903005505 79 157 0.0 0.0 0.00 0.35 0.34 76 1007.7
20260903005005 80 157 0.0 0.0 0.00 0.35 0.34 75 1007.7
20260903004505 80 157 0.0 0.0 0.00 0.35 0.34 74 1007.7
20260903004006 80 157 0.0 0.0 0.00 0.35 0.34 74 1007.6
20260903003006 81 157 0.0 0.9 0.00 0.35 0.34 74 1007.6
20260903002506 81 157 0.0 1.7 0.00 0.35 0.34 73 1007.6
20260903002006 81 157 0.0 1.7 0.00 0.35 0.34 73 1007.6
20260903001005 82 157 0.9 1.7 0.00 0.35 0.34 72 1007.5
20260903000006 83 157 0.9 1.7 0.00 0.35 0.34 72 1007.6
20260902235006 83 157 0.9 4.3 0.00 0.35 0.34 71 1007.6
20260902234006 83 157 0.9 5.2 0.00 0.35 0.34 71 1007.6
20260902233506 83 155 1.7 2.6 0.00 0.35 0.34 70 1007.6
20260902233006 83 155 0.9 2.6 0.00 0.35 0.34 71 1007.7
20260902232505 83 155 0.9 2.6 0.00 0.35 0.34 72 1007.6
20260902232006 83 155 0.9 2.6 0.00 0.35 0.34 72 1007.6
20260902231506 84 155 0.9 2.6 0.00 0.35 0.34 71 1007.6
20260902230505 84 155 0.9 2.6 0.00 0.35 0.34 71 1007.6
20260902230006 84 155 0.9 1.7 0.00 0.35 0.34 71 1007.6
20260902225505 84 155 0.9 2.6 0.00 0.35 0.34 70 1007.6
20260902225006 84 155 0.9 2.6 0.00 0.35 0.34 69 1007.6
20260902224505 84 155 0.0 2.6 0.00 0.35 0.34 70 1007.5
20260902224006 85 155 0.0 1.7 0.00 0.35 0.34 70 1007.5
20260902223506 85 155 1.7 2.6 0.00 0.35 0.34 69 1007.5
20260902223006 85 155 0.0 1.7 0.00 0.35 0.34 69 1007.5
20260902222506 85 155 1.7 2.6 0.00 0.35 0.34 68 1007.5
20260902221506 85 155 0.9 5.2 0.00 0.35 0.34 70 1007.5
20260902221006 85 153 1.7 5.2 0.00 0.35 0.34 69 1007.5
20260902220505 85 153 1.7 4.3 0.00 0.35 0.34 69 1007.5
20260902220006 85 152 0.9 4.3 0.00 0.35 0.34 70 1007.5
20260902215505 85 161 1.7 4.3 0.00 0.35 0.34 69 1007.5
20260902215006 85 161 0.9 1.7 0.00 0.35 0.34 69 1007.5
20260902214506 85 161 1.7 4.3 0.00 0.35 0.34 68 1007.6
20260902214005 86 161 1.7 4.3 0.00 0.35 0.34 68 1007.6
20260902213506 86 161 0.9 1.7 0.00 0.35 0.34 69 1007.6
20260902213006 86 161 2.6 5.2 0.00 0.35 0.34 67 1007.7
20260902212506 86 158 0.9 4.3 0.00 0.35 0.34 67 1007.7
20260902212006 86 141 2.6 5.2 0.00 0.35 0.34 67 1007.7
20260902211506 86 126 0.9 2.6 0.00 0.35 0.34 68 1007.8
20260902211006 86 117 0.9 2.6 0.00 0.35 0.34 68 1007.8
20260902210506 86 116 1.7 2.6 0.00 0.35 0.34 67 1007.9
20260902210006 86 162 1.7 4.3 0.00 0.35 0.34 66 1007.9
20260902205506 86 162 0.9 2.6 0.00 0.35 0.34 67 1007.9
20260902205005 86 162 0.9 4.3 0.00 0.35 0.34 68 1008.0
20260902204506 86 163 2.6 5.2 0.00 0.35 0.34 66 1008.0
20260902204005 86 160 0.9 4.3 0.00 0.35 0.34 66 1007.9
20260902203505 86 160 1.7 4.3 0.00 0.35 0.34 66 1007.9
20260902201506 86 163 1.7 4.3 0.00 0.35 0.34 67 1008.0
20260902201005 86 163 0.9 2.6 0.00 0.35 0.34 67 1007.9
20260902200506 86 163 0.9 5.2 0.00 0.35 0.34 66 1008.0
20260902200006 86 176 1.7 5.2 0.00 0.35 0.34 64 1008.1
20260902195506 86 155 0.9 2.6 0.00 0.35 0.34 66 1008.1
20260902195009 86 155 1.7 2.6 0.00 0.35 0.34 64 1008.1
20260902194506 86 154 0.9 1.7 0.00 0.35 0.34 66 1008.1
20260902194006 87 154 0.0 1.7 0.00 0.35 0.34 64 1008.2
20260902193506 87 154 0.9 2.6 0.00 0.35 0.34 65 1008.3
20260902193005 86 154 0.9 2.6 0.00 0.35 0.34 61 1008.2
20260902192006 87 154 0.9 2.6 0.00 0.35 0.34 64 1008.2
20260902191505 87 154 0.9 1.7 0.00 0.35 0.34 60 1008.2
20260902190505 88 154 1.7 2.6 0.00 0.35 0.34 60 1008.5
20260902190005 89 154 0.9 2.6 0.00 0.35 0.34 59 1008.5
20260902185505 89 154 0.9 2.6 0.00 0.35 0.34 61 1008.7
20260902185006 89 154 0.9 5.2 0.00 0.35 0.34 61 1008.9
20260902184505 89 158 1.7 5.2 0.00 0.35 0.34 60 1009.0
20260902184005 89 178 0.9 1.7 0.00 0.35 0.34 58 1009.1
20260902183506 89 178 0.9 1.7 0.00 0.35 0.34 63 1008.9
20260902183005 88 215 0.0 1.7 0.00 0.35 0.34 63 1008.7
20260902182505 88 319 0.0 1.7 0.00 0.35 0.34 62 1008.8
20260902181505 88 319 0.9 2.6 0.00 0.35 0.34 60 1008.9
20260902180505 87 163 0.9 1.7 0.00 0.35 0.34 63 1009.1
20260902175505 87 164 0.9 4.3 0.00 0.35 0.34 62 1009.2
20260902175006 87 169 0.9 4.3 0.00 0.35 0.34 63 1009.4
20260902173006 84 175 0.9 4.3 0.00 0.35 0.34 70 1009.5
20260902172505 84 163 0.9 4.3 0.00 0.35 0.34 69 1009.5
20260902172006 83 168 1.7 6.1 0.00 0.35 0.34 70 1009.7
20260902171505 83 149 0.9 4.3 0.00 0.35 0.34 71 1009.7
20260902170506 82 175 2.6 4.3 0.00 0.35 0.34 69 1009.7
20260902170006 82 173 2.6 5.2 0.00 0.35 0.34 71 1009.8
20260902165505 81 167 2.6 5.2 0.00 0.35 0.34 70 1009.7
20260902165005 81 164 1.7 5.2 0.00 0.35 0.34 71 1009.7
20260902164505 81 159 1.7 4.3 0.00 0.35 0.34 71 1009.6
20260902164006 81 171 1.7 4.3 0.00 0.35 0.34 73 1009.6
20260902163505 80 173 1.7 4.3 0.00 0.35 0.34 74 1009.5
20260902163005 79 173 1.7 4.3 0.00 0.35 0.34 75 1009.5
20260902162006 78 171 0.9 4.3 0.00 0.35 0.34 77 1009.5
20260902161006 77 160 1.7 4.3 0.00 0.35 0.34 79 1009.6
20260902160506 77 187 1.7 4.3 0.00 0.35 0.34 79 1009.6
20260902160008 77 170 1.7 4.3 0.00 0.35 0.34 79 1009.6
20260902155505 76 139 1.7 6.1 0.00 0.35 0.34 81 1009.7
20260902155005 75 171 1.7 6.1 0.00 0.35 0.34 82 1009.7
20260902154006 74 171 1.7 6.1 0.00 0.35 0.34 85 1009.5
20260902153505 74 167 1.7 5.2 0.00 0.35 0.34 88 1009.5
20260902153006 73 166 2.6 5.2 0.00 0.35 0.34 90 1009.6
20260902152506 72 169 2.6 5.2 0.00 0.35 0.34 90 1009.5
20260902152006 72 164 2.6 4.3 0.00 0.35 0.34 92 1009.5
20260902151505 71 173 1.7 5.2 0.00 0.35 0.34 92 1009.5
20260902151005 71 177 1.7 7.0 0.00 0.35 0.34 92 1009.5
20260902150505 70 171 2.6 7.0 0.00 0.35 0.34 92 1009.4
20260902150006 70 161 1.7 5.2 0.00 0.35 0.34 92 1009.5
20260902145505 70 173 1.7 5.2 0.00 0.35 0.34 93 1009.5
20260902144505 69 156 2.6 5.2 0.00 0.35 0.34 93 1009.5
20260902143505 68 163 0.9 5.2 0.00 0.35 0.34 92 1009.7
20260902143006 68 165 0.9 4.3 0.00 0.35 0.34 93 1009.7
20260902142505 68 162 1.7 4.3 0.00 0.35 0.34 92 1009.8
20260902141505 68 151 1.7 4.3 0.00 0.35 0.34 92 1009.7
20260902141005 68 113 0.9 1.7 0.00 0.35 0.34 93 1009.9
20260902140505 67 113 0.0 2.6 0.00 0.35 0.34 93 1010.0
20260902140005 67 113 1.7 5.2 0.00 0.35 0.34 93 1009.9
20260902135505 67 145 0.9 5.2 0.00 0.35 0.34 93 1009.9
20260902135006 67 161 0.9 2.6 0.00 0.35 0.34 93 1010.0
20260902134006 67 173 1.7 4.3 0.00 0.35 0.34 93 1010.1
20260902133505 66 174 0.9 2.6 0.00 0.35 0.34 93 1010.1
20260902133006 66 185 0.0 0.9 0.00 0.35 0.34 93 1009.9
20260902132505 66 185 0.9 2.6 0.00 0.35 0.34 93 1009.8
20260902132005 66 25 0.9 4.3 0.00 0.35 0.34 93 1009.7
20260902131505 66 54 0.9 4.3 0.00 0.35 0.34 93 1010.0
20260902131006 66 179 0.0 2.6 0.00 0.35 0.34 93 1010.3
20260902130505 65 39 0.0 0.9 0.00 0.35 0.34 93 1010.3
20260902130005 65 38 0.0 1.7 0.00 0.35 0.34 93 1010.2
20260902125511 64 38 0.0 0.9 0.00 0.35 0.34 93 1010.1
20260902125006 64 38 0.0 0.0 0.00 0.35 0.34 93 1010.4
20260902124505 64 38 0.0 0.0 0.00 0.35 0.34 93 1010.7
20260902124005 64 38 0.0 0.0 0.00 0.35 0.34 93 1010.5
20260902123006 64 38 0.0 0.0 0.00 0.35 0.34 93 1010.5
20260902122505 64 38 0.0 0.0 0.00 0.35 0.34 92 1010.4
20260902122005 64 38 0.0 0.0 0.00 0.35 0.34 92 1009.8
20260902121505 64 38 0.0 0.0 0.00 0.35 0.34 93 1009.7
20260902120505 64 38 0.0 0.9 0.00 0.35 0.34 93 1009.4
20260902120005 64 38 0.0 0.0 0.00 0.35 0.34 93 1009.0
20260902115505 64 38 0.0 0.0 0.00 0.35 0.34 92 1009.2
20260902115006 64 38 0.0 0.9 0.00 0.35 0.34 92 1009.3
20260902114505 64 38 0.0 0.9 0.00 0.35 0.34 92 1009.5
20260902113505 64 38 0.0 0.9 0.00 0.35 0.34 92 1009.6
20260902113005 64 38 0.9 2.6 0.00 0.35 0.34 92 1009.6
20260902112505 64 40 0.0 1.7 0.00 0.35 0.34 92 1009.6
20260902112006 64 40 0.9 2.6 0.00 0.35 0.34 92 1009.4
20260902111506 64 348 0.9 2.6 0.00 0.35 0.34 92 1009.4
20260902111006 64 339 0.9 2.6 0.01 0.35 0.34 92 1009.7
20260902110505 64 355 0.9 2.6 0.03 0.35 0.34 92 1009.9
20260902105005 64 140 0.0 0.0 0.03 0.35 0.34 92 1010.8
20260902104506 64 140 0.0 0.0 0.03 0.35 0.34 92 1011.2
20260902104006 64 140 0.0 1.7 0.03 0.35 0.34 92 1011.4
20260902103505 64 140 0.9 1.7 0.03 0.35 0.34 92 1010.7
20260902102505 64 140 0.9 2.6 0.03 0.35 0.34 92 1011.4
20260902102005 64 140 1.7 4.3 0.03 0.35 0.34 92 1011.7
20260902101505 64 162 3.5 5.2 0.03 0.35 0.34 92 1011.6
20260902101006 64 164 1.7 7.8 0.02 0.34 0.33 92 1011.3
20260902100505 64 175 5.2 7.8 0.00 0.32 0.31 92 1012.3
20260902100005 64 162 1.7 4.3 0.00 0.32 0.31 92 1010.7
20260902095506 63 171 0.9 2.6 0.00 0.32 0.31 92 1010.5
20260902095005 63 33 0.9 1.7 0.00 0.32 0.31 92 1010.5
20260902094505 63 33 0.0 1.7 0.00 0.32 0.31 92 1010.4
20260902094006 63 33 0.0 1.7 0.00 0.32 0.31 92 1010.2
20260902093505 63 33 0.0 1.7 0.00 0.32 0.31 92 1009.8
20260902093005 63 33 0.9 1.7 0.00 0.32 0.31 92 1009.4
20260902092505 63 33 0.0 0.9 0.00 0.32 0.31 92 1009.5
20260902092006 63 33 0.0 1.7 0.00 0.32 0.31 92 1009.8
20260902091007 64 7 0.9 2.6 0.00 0.32 0.31 92 1009.7
20260902090506 64 5 0.0 1.7 0.00 0.32 0.31 92 1009.8
20260902090006 64 14 0.0 1.7 0.00 0.32 0.31 92 1009.9
20260902085006 64 40 0.9 2.6 0.00 0.32 0.31 92 1009.8
20260902084507 64 163 0.0 1.7 0.00 0.32 0.31 92 1009.7
20260902084006 65 163 0.9 4.3 0.00 0.32 0.31 92 1009.8
20260902083506 65 163 0.0 0.9 0.00 0.32 0.31 92 1009.6
20260902083006 65 163 0.0 0.9 0.00 0.32 0.31 92 1009.7
20260902082506 65 163 0.0 0.9 0.00 0.32 0.31 92 1009.6
20260902082007 65 163 0.0 0.9 0.00 0.32 0.31 92 1009.9
20260902081506 65 163 0.0 1.7 0.00 0.32 0.31 92 1009.9
20260902081007 65 163 0.0 0.0 0.00 0.32 0.31 92 1010.0
20260902080506 65 163 0.0 2.6 0.00 0.32 0.31 92 1009.9
20260902080006 65 3 0.9 2.6 0.01 0.32 0.31 92 1009.7
20260902075506 65 4 0.9 5.2 0.02 0.32 0.31 92 1009.7
20260902075006 65 340 0.9 2.6 0.02 0.32 0.31 92 1009.7